Flag for Germany Weather past 2 weeks in Rottenburg am Neckar, Baden-Württemberg, Germany

Now
54 °F

Overcast.


Feels Like: 54 °F
Forecast: 47 / 68 °F
Wind: 1 mph from Southwest

Location: Stuttgart-Echterdingen

Current Time: Apr 26, 2015 at 3:32:39 AM

Latest Report: Apr 26, 2015 at 3:00 AM


Visibility: 41 mi

Pressure: 29.86 "Hg

Humidity: 81%

Dew point: 48 °F

Location of Rottenburg am NeckarLocation

Historic Weather in Rottenburg am Neckar — Graph

°F

Rottenburg am Neckar temperature yesterday

Maximum temperature yesterday: 65 °F (at 2:00 PM)
Minimum temperature yesterday: 41 °F (at 6:00 AM)
Average temperature yesterday: 54 °F

Past Weeks' High & Low Weather Summary

 TemperatureHumidityPressure
High77 °F (Apr 15, 4:00 PM)87% (Apr 23, 7:00 AM)30.47 "Hg (Apr 23, 7:00 AM)
Low34 °F (Apr 23, 7:00 AM)17% (Apr 15, 3:00 PM)29.83 "Hg (Apr 25, 2:00 PM)
Average54 °F56%30.17 "Hg
* Reported Apr 11 2:00 AM — Apr 26 2:00 AM, Rottenburg am Neckar, Weather by CustomWeather, © 2015

Note: Actual official high and low records may vary slightly from our data, if they occured in-between our weather recording intervals... More about our weather records

Advertising

Rottenburg am Neckar weather history for previous 24 hours

 ConditionsComfort  
Time TempWeatherWind HumidityBarometerVisibility
2:00 AM
Sun, Apr 26
54 °FOvercast.1 mph81%29.88 "Hg37 mi
1:00 AM55 °FOvercast.3 mph79%29.87 "Hg34 mi
12:00 AM56 °FOvercast.2 mph80%29.86 "Hg28 mi
10:00 PM
Sat, Apr 25
56 °FSprinkles. Overcast.1 mph87%29.86 "Hg25 mi
9:00 PM57 °FOvercast.1 mph85%29.85 "Hg28 mi
8:00 PM57 °FOvercast.2 mph86%29.84 "Hg25 mi
7:00 PM57 °FOvercast.3 mph86%29.85 "Hg22 mi
6:00 PM59 °FLight rain. Overcast.3 mph75%29.85 "Hg22 mi
4:00 PM62 °FSprinkles. Overcast.5 mph59%29.84 "Hg25 mi
3:00 PM63 °FSprinkles. Overcast.7 mph56%29.83 "Hg25 mi
2:00 PM65 °FOvercast.6 mph48%29.83 "Hg37 mi
1:00 PM61 °FOvercast.2 mph64%29.85 "Hg37 mi
12:00 PM54 °FOvercast.3 mph74%29.88 "Hg37 mi
10:00 AM54 °FLight rain. Overcast.1 mph57%29.89 "Hg34 mi
9:00 AM51 °FLight rain. Overcast.1 mph62%29.89 "Hg34 mi
8:00 AM46 °FOvercast.2 mph73%29.90 "Hg40 mi
7:00 AM42 °FOvercast.No wind86%29.90 "Hg34 mi
6:00 AM41 °FPassing clouds.1 mph85%29.89 "Hg25 mi
3:00 AM44 °FPassing clouds.1 mph71%29.91 "Hg22 mi
Weather by CustomWeather, © 2015

See weather overviewHow to use our weather pages